CW2160 Weather Reports


Display with metric or nautical units.
time (UTC)temp
F
wind
direction
speed
MPH
gust
MPH
rain 1hr
in
rain 24hr
in
rain mn
in
humidity
%
barometer
mb
20260906225032 101 0 0.0 6.0 0.00 0.00 0.00 37 1011.6
20260906224548 101 127 1.0 6.0 0.00 0.00 0.00 36 1011.7
20260906224028 100 106 2.0 6.0 0.00 0.00 0.00 36 1011.6
20260906223532 101 0 1.0 6.0 0.00 0.00 0.00 36 1011.5
20260906223106 101 108 1.0 6.0 0.00 0.00 0.00 36 1011.6
20260906222530 101 215 1.0 5.0 0.00 0.00 0.00 36 1011.6
20260906222030 101 77 0.0 5.0 0.00 0.00 0.00 36 1011.7
20260906221603 102 127 1.0 6.0 0.00 0.00 0.00 35 1011.7
20260906221030 101 173 0.0 6.0 0.00 0.00 0.00 36 1011.7
20260906220528 101 134 0.0 5.0 0.00 0.00 0.00 36 1011.7
20260906220051 101 119 1.0 5.0 0.00 0.00 0.00 36 1011.7
20260906215528 101 184 1.0 9.0 0.00 0.00 0.00 34 1011.7
20260906215031 101 133 1.0 9.0 0.00 0.00 0.00 35 1011.8
20260906214559 101 163 0.0 8.0 0.00 0.00 0.00 36 1011.7
20260906214031 100 127 1.0 8.0 0.00 0.00 0.00 36 1011.8
20260906213532 101 188 2.0 8.0 0.00 0.00 0.00 36 1011.9
20260906213057 101 106 1.0 11.0 0.00 0.00 0.00 36 1011.9
20260906212530 101 138 1.0 11.0 0.00 0.00 0.00 36 1012.1
20260906212032 100 0 3.0 11.0 0.00 0.00 0.00 36 1012.1
20260906211555 101 113 2.0 8.0 0.00 0.00 0.00 36 1012.2
20260906211028 101 0 0.0 4.0 0.00 0.00 0.00 36 1012.3
20260906210533 101 0 0.0 5.0 0.00 0.00 0.00 36 1012.4
20260906210106 101 0 1.0 10.0 0.00 0.00 0.00 37 1012.4
20260906205531 100 0 3.0 10.0 0.00 0.00 0.00 37 1012.6
20260906205028 100 149 1.0 6.0 0.00 0.00 0.00 36 1012.6
20260906204555 99 0 0.0 1.0 0.00 0.00 0.00 39 1012.7
20260906204032 99 0 0.0 8.0 0.00 0.00 0.00 39 1012.9
20260906203531 99 0 2.0 8.0 0.00 0.00 0.00 38 1012.9
20260906203052 99 151 2.0 9.0 0.00 0.00 0.00 38 1012.9
20260906202530 98 0 1.0 9.0 0.00 0.00 0.00 39 1012.9
20260906202029 99 131 2.0 9.0 0.00 0.00 0.00 38 1013.0
20260906201623 100 117 1.0 10.0 0.00 0.00 0.00 39 1013.1
20260906201033 99 139 2.0 10.0 0.00 0.00 0.00 40 1013.2
20260906200531 98 0 0.0 8.0 0.00 0.00 0.00 40 1013.2
20260906200054 99 0 0.0 8.0 0.00 0.00 0.00 40 1013.3
20260906195528 99 0 0.0 5.0 0.00 0.00 0.00 39 1013.3
20260906195030 100 0 0.0 5.0 0.00 0.00 0.00 39 1013.4
20260906194559 99 0 2.0 6.0 0.00 0.00 0.00 40 1013.4
20260906194028 99 98 2.0 7.0 0.00 0.00 0.00 40 1013.4
20260906193530 100 78 1.0 7.0 0.00 0.00 0.00 38 1013.5
20260906193059 101 0 0.0 6.0 0.00 0.00 0.00 37 1013.5
20260906192529 101 0 0.0 8.0 0.00 0.00 0.00 37 1013.5
20260906192029 101 0 0.0 8.0 0.00 0.00 0.00 38 1013.6
20260906191608 101 0 0.0 0.0 0.00 0.00 0.00 39 1013.6
20260906191031 100 0 0.0 7.0 0.00 0.00 0.00 39 1013.8
20260906190530 101 0 0.0 7.0 0.00 0.00 0.00 40 1013.9
20260906190053 100 115 1.0 8.0 0.00 0.00 0.00 40 1013.9
20260906185528 99 279 1.0 8.0 0.00 0.00 0.00 40 1013.8
20260906185030 99 140 1.0 8.0 0.00 0.00 0.00 41 1013.9
20260906184554 100 0 0.0 5.0 0.00 0.00 0.00 39 1014.0
20260906184028 100 177 1.0 5.0 0.00 0.00 0.00 41 1014.1
20260906183531 99 0 1.0 6.0 0.00 0.00 0.00 41 1014.2
20260906183046 99 162 1.0 6.0 0.00 0.00 0.00 41 1014.3
20260906182534 100 169 1.0 7.0 0.00 0.00 0.00 41 1014.4
20260906182032 99 0 1.0 7.0 0.00 0.00 0.00 43 1014.4
20260906181632 98 76 1.0 7.0 0.00 0.00 0.00 43 1014.5
20260906181032 98 132 2.0 7.0 0.00 0.00 0.00 44 1014.6
20260906180530 97 181 1.0 6.0 0.00 0.00 0.00 45 1014.6
20260906180053 97 96 2.0 7.0 0.00 0.00 0.00 44 1014.7
20260906175530 98 0 0.0 7.0 0.00 0.00 0.00 43 1014.8
20260906175030 98 139 1.0 7.0 0.00 0.00 0.00 44 1014.8
20260906174546 97 140 2.0 7.0 0.00 0.00 0.00 44 1014.9
20260906174029 97 106 2.0 7.0 0.00 0.00 0.00 44 1015.0
20260906173530 97 0 1.0 6.0 0.00 0.00 0.00 45 1015.2
20260906173102 97 0 0.0 6.0 0.00 0.00 0.00 44 1015.2
20260906172530 97 0 1.0 6.0 0.00 0.00 0.00 44 1015.3
20260906172028 98 132 0.0 4.0 0.00 0.00 0.00 43 1015.4
20260906171556 97 162 1.0 6.0 0.00 0.00 0.00 46 1015.4
20260906171031 96 212 1.0 6.0 0.00 0.00 0.00 46 1015.4
20260906170528 96 156 1.0 4.0 0.00 0.00 0.00 46 1015.4
20260906170052 95 0 1.0 5.0 0.00 0.00 0.00 49 1015.4
20260906165528 95 0 1.0 5.0 0.00 0.00 0.00 48 1015.5
20260906165028 95 0 0.0 1.0 0.00 0.00 0.00 49 1015.6
20260906164559 95 0 0.0 0.0 0.00 0.00 0.00 50 1015.6
20260906164030 95 0 0.0 0.0 0.00 0.00 0.00 49 1015.6
20260906163529 95 0 0.0 4.0 0.00 0.00 0.00 49 1015.7
20260906163103 95 0 0.0 8.0 0.00 0.00 0.00 50 1015.7
20260906162528 94 238 2.0 8.0 0.00 0.00 0.00 51 1015.6
20260906162058 94 140 0.0 6.0 0.00 0.00 0.00 52 1015.6
20260906161605 94 127 1.0 5.0 0.00 0.00 0.00 53 1015.6
20260906161031 94 0 1.0 6.0 0.00 0.00 0.00 53 1015.6
20260906160527 93 144 0.0 6.0 0.00 0.00 0.00 52 1015.6
20260906160052 93 187 1.0 5.0 0.00 0.00 0.00 52 1015.6
20260906155527 93 131 1.0 5.0 0.00 0.00 0.00 53 1015.7
20260906155030 93 83 0.0 5.0 0.00 0.00 0.00 55 1015.6
20260906154547 93 0 0.0 5.0 0.00 0.00 0.00 56 1015.5
20260906154033 93 115 0.0 5.0 0.00 0.00 0.00 55 1015.7
20260906153532 92 0 0.0 0.0 0.00 0.00 0.00 58 1015.5
20260906153056 92 0 0.0 0.0 0.00 0.00 0.00 58 1015.4
20260906152531 91 0 0.0 2.0 0.00 0.00 0.00 60 1015.4
20260906152031 91 0 0.0 4.0 0.00 0.00 0.00 60 1015.3
20260906151553 90 0 1.0 4.0 0.00 0.00 0.00 61 1015.4
20260906151031 90 0 0.0 4.0 0.00 0.00 0.00 61 1015.4
20260906150533 90 0 0.0 4.0 0.00 0.00 0.00 61 1015.3
20260906150051 90 133 1.0 4.0 0.00 0.00 0.00 61 1015.4
20260906145531 90 0 0.0 3.0 0.00 0.00 0.00 62 1015.3
20260906145027 89 111 0.0 3.0 0.00 0.00 0.00 63 1015.4
20260906144558 89 125 0.0 3.0 0.00 0.00 0.00 63 1015.3
20260906144030 89 0 0.0 0.0 0.00 0.00 0.00 63 1015.3
20260906143529 89 0 0.0 0.0 0.00 0.00 0.00 64 1015.3
20260906143056 88 0 0.0 0.0 0.00 0.00 0.00 65 1015.3
20260906142529 88 0 0.0 0.0 0.00 0.00 0.00 64 1015.2
20260906142031 88 0 0.0 0.0 0.00 0.00 0.00 65 1015.5
20260906141558 88 0 0.0 0.0 0.00 0.00 0.00 66 1015.5
20260906141032 87 0 0.0 0.0 0.00 0.00 0.00 66 1015.5
20260906140530 87 0 0.0 0.0 0.00 0.00 0.00 66 1015.4
20260906140059 87 0 0.0 0.0 0.00 0.00 0.00 67 1015.5
20260906135529 87 0 0.0 0.0 0.00 0.00 0.00 67 1015.3
20260906135030 87 0 0.0 0.0 0.00 0.00 0.00 67 1015.3
20260906134605 86 0 0.0 0.0 0.00 0.00 0.00 69 1015.3
20260906134031 86 0 0.0 0.0 0.00 0.00 0.00 71 1015.3
20260906133532 85 0 0.0 0.0 0.00 0.00 0.00 72 1015.3
20260906133051 85 0 0.0 0.0 0.00 0.00 0.00 73 1015.3
20260906132530 85 0 0.0 0.0 0.00 0.00 0.00 73 1015.4
20260906132028 84 0 0.0 0.0 0.00 0.00 0.00 74 1015.3
20260906131554 84 0 0.0 0.0 0.00 0.00 0.00 76 1015.2
20260906131029 83 0 0.0 0.0 0.00 0.00 0.00 77 1015.2
20260906130529 82 0 0.0 0.0 0.00 0.00 0.00 79 1015.3
20260906130110 81 0 0.0 0.0 0.00 0.00 0.00 82 1015.2
20260906125529 80 0 0.0 0.0 0.00 0.00 0.00 85 1015.2
20260906125027 79 0 0.0 0.0 0.00 0.00 0.00 85 1015.1
20260906124554 79 0 0.0 0.0 0.00 0.00 0.00 85 1015.1
20260906124030 79 0 0.0 0.0 0.00 0.00 0.00 85 1015.0
20260906123527 78 0 0.0 0.0 0.00 0.00 0.00 85 1015.0
20260906123048 78 0 0.0 0.0 0.00 0.00 0.00 85 1014.9
20260906122531 78 0 0.0 0.0 0.00 0.00 0.00 85 1014.9
20260906122033 78 0 0.0 0.0 0.00 0.00 0.00 85 1014.8
20260906121553 79 0 0.0 0.0 0.00 0.00 0.00 85 1014.7
20260906121031 79 0 0.0 0.0 0.00 0.00 0.00 85 1014.7
20260906120528 79 0 0.0 0.0 0.00 0.00 0.00 85 1014.6
20260906120058 79 0 0.0 0.0 0.00 0.00 0.00 85 1014.6
20260906115532 78 0 0.0 0.0 0.00 0.00 0.00 85 1014.6
20260906115027 78 0 0.0 0.0 0.00 0.00 0.00 86 1014.6
20260906114601 78 0 0.0 0.0 0.00 0.00 0.00 85 1014.5
20260906114027 78 0 0.0 0.0 0.00 0.00 0.00 85 1014.4
20260906113533 78 0 0.0 0.0 0.00 0.00 0.00 85 1014.4
20260906113102 78 0 0.0 0.0 0.00 0.00 0.00 84 1014.4
20260906112529 78 0 0.0 0.0 0.00 0.00 0.00 84 1014.4
20260906112030 78 0 0.0 0.0 0.00 0.00 0.00 84 1014.4
20260906111545 78 0 0.0 0.0 0.00 0.00 0.00 84 1014.3
20260906111029 78 0 0.0 0.0 0.00 0.00 0.00 84 1014.3
20260906110530 78 0 0.0 0.0 0.00 0.00 0.00 84 1014.3
20260906110055 78 0 0.0 0.0 0.00 0.00 0.00 83 1014.3
20260906105528 78 0 0.0 0.0 0.00 0.00 0.00 83 1014.2
20260906105028 78 0 0.0 0.0 0.00 0.00 0.00 83 1014.1
20260906104552 78 0 0.0 0.0 0.00 0.00 0.00 82 1014.1
20260906104030 79 0 0.0 0.0 0.00 0.00 0.00 82 1014.1
20260906103529 79 0 0.0 0.0 0.00 0.00 0.00 82 1014.0
20260906103045 79 0 0.0 0.0 0.00 0.00 0.00 82 1014.1
20260906102528 79 0 0.0 0.0 0.00 0.00 0.00 82 1014.0
20260906102031 79 0 0.0 0.0 0.00 0.00 0.00 82 1013.9
20260906101544 79 0 0.0 0.0 0.00 0.00 0.00 82 1014.0
20260906101033 79 0 0.0 0.0 0.00 0.00 0.00 82 1013.9
20260906100528 79 0 0.0 0.0 0.00 0.00 0.00 81 1013.8
20260906100055 79 0 0.0 0.0 0.00 0.00 0.00 82 1013.7
20260906095528 79 0 0.0 0.0 0.00 0.00 0.00 82 1013.7
20260906095030 79 0 0.0 0.0 0.00 0.00 0.00 82 1013.8
20260906094553 79 0 0.0 0.0 0.00 0.00 0.00 82 1013.7
20260906094031 79 0 0.0 0.0 0.00 0.00 0.00 81 1013.6
20260906093528 79 0 0.0 0.0 0.00 0.00 0.00 81 1013.5
20260906093059 80 0 0.0 0.0 0.00 0.00 0.00 80 1013.5
20260906092530 80 0 0.0 0.0 0.00 0.00 0.00 80 1013.5
20260906092028 80 0 0.0 0.0 0.00 0.00 0.00 80 1013.4
20260906091556 80 0 0.0 0.0 0.00 0.00 0.00 80 1013.4
20260906091028 80 0 0.0 0.0 0.00 0.00 0.00 80 1013.3
20260906090529 80 0 0.0 0.0 0.00 0.00 0.00 79 1013.3
20260906090051 80 0 0.0 0.0 0.00 0.00 0.00 79 1013.3
20260906085530 81 0 0.0 0.0 0.00 0.00 0.00 79 1013.3
20260906085028 81 0 0.0 0.0 0.00 0.00 0.00 79 1013.3
20260906084557 81 0 0.0 0.0 0.00 0.00 0.00 79 1013.4
20260906084027 81 0 0.0 0.0 0.00 0.00 0.00 78 1013.4
20260906083528 81 0 0.0 0.0 0.00 0.00 0.00 78 1013.5
20260906083048 81 0 0.0 0.0 0.00 0.00 0.00 78 1013.4
20260906082529 81 0 0.0 0.0 0.00 0.00 0.00 77 1013.3
20260906082030 81 0 0.0 0.0 0.00 0.00 0.00 77 1013.3
20260906081600 81 0 0.0 0.0 0.00 0.00 0.00 77 1013.2
20260906081029 81 0 0.0 0.0 0.00 0.00 0.00 77 1013.2
20260906080531 81 0 0.0 0.0 0.00 0.00 0.00 77 1013.3
20260906080100 81 0 0.0 0.0 0.00 0.00 0.00 77 1013.4
20260906075528 81 0 0.0 0.0 0.00 0.00 0.00 77 1013.5
20260906075027 81 0 0.0 0.0 0.00 0.00 0.00 77 1013.5
20260906074552 81 0 0.0 0.0 0.00 0.00 0.00 77 1013.6
20260906074029 82 0 0.0 0.0 0.00 0.00 0.00 77 1013.4
20260906073531 82 0 0.0 0.0 0.00 0.00 0.00 76 1013.5
20260906073047 82 0 0.0 0.0 0.00 0.00 0.00 75 1013.4
20260906072530 82 0 0.0 0.0 0.00 0.00 0.00 75 1013.5
20260906072031 82 0 0.0 0.0 0.00 0.00 0.00 74 1013.4
20260906071544 82 0 0.0 0.0 0.00 0.00 0.00 74 1013.4
20260906071029 83 0 0.0 0.0 0.00 0.00 0.00 74 1013.5
20260906070532 83 0 0.0 0.0 0.00 0.00 0.00 73 1013.8
20260906070055 83 0 0.0 0.0 0.00 0.00 0.00 73 1013.7
20260906065529 83 0 0.0 0.0 0.00 0.00 0.00 73 1013.9
20260906065030 83 0 0.0 0.0 0.00 0.00 0.00 72 1013.9
20260906064602 83 0 0.0 0.0 0.00 0.00 0.00 72 1013.8
20260906064031 83 0 0.0 0.0 0.00 0.00 0.00 72 1013.8
20260906063528 83 0 0.0 0.0 0.00 0.00 0.00 71 1013.7
20260906063058 83 0 0.0 0.0 0.00 0.00 0.00 71 1013.7
20260906062529 83 0 0.0 0.0 0.00 0.00 0.00 71 1013.7
20260906062028 84 0 0.0 0.0 0.00 0.00 0.00 70 1013.9
20260906061558 84 0 0.0 0.0 0.00 0.00 0.00 70 1013.8
20260906061027 84 0 0.0 0.0 0.00 0.00 0.00 70 1013.8
20260906060530 84 0 0.0 0.0 0.00 0.00 0.00 69 1013.9
20260906060137 84 0 0.0 0.0 0.00 0.00 0.00 69 1013.9
20260906055528 84 0 0.0 0.0 0.00 0.00 0.00 69 1013.8
20260906055030 84 0 0.0 0.0 0.00 0.00 0.00 69 1013.9
20260906054550 84 0 0.0 0.0 0.00 0.00 0.00 69 1013.9
20260906054028 84 0 0.0 0.0 0.00 0.00 0.00 69 1013.9
20260906053534 84 0 0.0 0.0 0.00 0.00 0.00 69 1013.9
20260906053057 84 0 0.0 0.0 0.00 0.00 0.00 68 1013.7
20260906052536 84 0 0.0 0.0 0.00 0.00 0.00 67 1013.6
20260906052028 84 0 0.0 0.0 0.00 0.00 0.00 67 1013.6
20260906051557 85 0 0.0 0.0 0.00 0.00 0.00 67 1013.7
20260906051028 85 0 0.0 0.0 0.00 0.00 0.00 67 1013.7
20260906050528 85 0 0.0 0.0 0.00 0.00 0.00 66 1013.7
20260906050110 85 0 0.0 0.0 0.00 0.00 0.00 66 1013.8
20260906045531 85 0 0.0 0.0 0.00 0.00 0.00 66 1013.6
20260906045031 85 0 0.0 0.0 0.00 0.00 0.00 65 1013.9
20260906044546 85 0 0.0 0.0 0.00 0.00 0.00 65 1013.7
20260906044030 86 0 0.0 0.0 0.00 0.00 0.00 65 1013.9
20260906043528 86 0 0.0 0.0 0.00 0.00 0.00 65 1013.8
20260906043100 86 0 0.0 0.0 0.00 0.00 0.00 64 1013.8
20260906042528 86 0 0.0 0.0 0.00 0.00 0.00 64 1013.8
20260906042030 86 0 0.0 0.0 0.00 0.00 0.00 64 1013.9
20260906041555 86 0 0.0 0.0 0.00 0.00 0.00 64 1013.7
20260906041029 86 0 0.0 0.0 0.00 0.00 0.00 63 1013.7
20260906040528 86 0 0.0 0.0 0.00 0.00 0.00 63 1013.7
20260906040050 86 0 0.0 0.0 0.00 0.00 0.00 63 1013.7
20260906035533 86 0 0.0 0.0 0.00 0.00 0.00 62 1013.7
20260906035030 87 0 0.0 0.0 0.00 0.00 0.00 62 1013.7
20260906034555 87 0 0.0 0.0 0.00 0.00 0.00 62 1013.7
20260906034028 87 0 0.0 0.0 0.00 0.00 0.00 62 1013.7
20260906033527 87 0 0.0 0.0 0.00 0.00 0.00 61 1013.7
20260906033045 87 0 0.0 0.0 0.00 0.00 0.00 61 1013.6
20260906032527 87 0 0.0 0.0 0.00 0.00 0.00 61 1013.6
20260906032031 88 0 0.0 0.0 0.00 0.00 0.00 60 1013.6
20260906031616 88 0 0.0 0.0 0.00 0.00 0.00 60 1013.8
20260906031027 88 0 0.0 3.0 0.00 0.00 0.00 59 1013.9
20260906030528 88 0 0.0 3.0 0.00 0.00 0.00 59 1013.7
20260906030051 88 221 0.0 0.0 0.00 0.00 0.00 59 1013.8
20260906025533 88 0 0.0 0.0 0.00 0.00 0.00 58 1013.7
20260906025031 88 0 0.0 0.0 0.00 0.00 0.00 58 1013.7
20260906024555 88 0 0.0 5.0 0.00 0.00 0.00 58 1013.6
20260906024030 89 0 0.0 5.0 0.00 0.00 0.00 57 1013.5
20260906023530 89 0 0.0 4.0 0.00 0.00 0.00 56 1013.5
20260906023101 89 0 0.0 3.0 0.00 0.00 0.00 56 1013.3
20260906022529 89 0 0.0 4.0 0.00 0.00 0.00 56 1013.2
20260906022029 89 0 0.0 4.0 0.00 0.00 0.00 55 1013.2
20260906021555 89 162 0.0 5.0 0.00 0.00 0.00 55 1013.0
20260906021031 89 148 1.0 7.0 0.00 0.00 0.00 55 1013.0
20260906020529 89 0 0.0 7.0 0.00 0.00 0.00 54 1012.9
20260906020057 90 141 0.0 6.0 0.00 0.00 0.00 54 1012.8
20260906015529 90 129 1.0 6.0 0.00 0.00 0.00 53 1012.8
20260906015030 90 0 2.0 6.0 0.00 0.00 0.00 53 1012.8
20260906014557 90 0 0.0 1.0 0.00 0.00 0.00 53 1012.8
20260906014029 91 0 0.0 1.0 0.00 0.00 0.00 52 1012.7
20260906013532 91 0 0.0 4.0 0.00 0.00 0.00 51 1012.5
20260906013056 92 0 0.0 7.0 0.00 0.00 0.00 51 1012.5
20260906012529 92 143 2.0 8.0 0.00 0.00 0.00 50 1012.3
20260906012029 93 141 1.0 8.0 0.00 0.00 0.00 48 1012.2
20260906011544 93 203 4.0 7.0 0.00 0.00 0.00 47 1012.0
20260906011027 94 120 1.0 8.0 0.00 0.00 0.00 47 1011.9
20260906010528 94 71 2.0 8.0 0.00 0.00 0.00 47 1011.8
20260906010044 95 102 1.0 6.0 0.00 0.00 0.00 46 1011.7
20260906005528 95 217 0.0 8.0 0.00 0.00 0.00 45 1011.7
20260906005029 96 106 2.0 8.0 0.00 0.00 0.00 44 1011.6
20260906004558 96 141 0.0 0.0 0.00 0.00 0.00 41 1011.7
20260906004031 97 0 0.0 4.0 0.00 0.00 0.00 40 1011.6
20260906003530 97 0 0.0 4.0 0.00 0.00 0.00 39 1011.6
20260906003049 97 0 0.0 4.0 0.00 0.00 0.00 39 1011.6
20260906002529 98 134 0.0 4.0 0.00 0.00 0.00 39 1011.6
20260906002027 98 0 0.0 0.0 0.00 0.00 0.00 38 1011.7
20260906001546 98 0 0.0 5.0 0.00 0.00 0.00 37 1011.6
20260906001029 99 0 0.0 5.0 0.00 0.00 0.00 37 1011.5
20260906000529 99 0 1.0 5.0 0.00 0.00 0.00 37 1011.5
20260906000105 99 0 0.0 6.0 0.00 0.00 0.00 36 1011.5
20260905235529 99 0 0.0 6.0 0.00 0.00 0.00 36 1011.4
20260905235033 100 0 0.0 4.0 0.00 0.00 0.00 35 1011.3
20260905234549 100 0 0.0 4.0 0.00 0.00 0.00 35 1011.3
20260905234027 100 0 1.0 4.0 0.00 0.00 0.00 35 1011.3
20260905233528 100 0 0.0 0.0 0.00 0.00 0.00 34 1011.3
20260905233049 101 0 0.0 0.0 0.00 0.00 0.00 35 1011.3
20260905232529 101 0 0.0 0.0 0.00 0.00 0.00 35 1011.2
20260905232029 101 0 0.0 5.0 0.00 0.00 0.00 35 1011.3
20260905231550 101 0 0.0 5.0 0.00 0.00 0.00 34 1011.3
20260905231028 102 113 0.0 5.0 0.00 0.00 0.00 33 1011.3
20260905230526 103 27 0.0 3.0 0.00 0.00 0.00 33 1011.3
20260905230100 102 0 0.0 3.0 0.00 0.00 0.00 34 1011.3
20260905225529 102 0 0.0 3.0 0.00 0.00 0.00 34 1011.2